,,,PA_Meas_PMT16A,,PR_Meas_QMR101_102,,RH_Meas_QMH101,,SR_Meas_QMS101,,TA_Meas_QMH101,,GenWind,,GenWind,
date,time,status,PA,status,PR,status,RH,status,SR,status,TA,status,DirAvg,status,SpdAvg,
2011-12-01, 00:00:04,VALID,1001.16,VALID,0,VALID,94.2319,VALID,0,VALID,25.0255,VALID,349,VALID,0.121094,
2011-12-01, 00:01:04,VALID,1001.15,VALID,0,VALID,94.1938,VALID,0.0815089,VALID,25.006,VALID,349,VALID,0.265625,
2011-12-01, 00:02:04,VALID,1001.12,VALID,0,VALID,94.2396,VALID,0,VALID,25.006,VALID,349,VALID,0.359766,
2011-12-01, 00:03:04,VALID,1001.09,VALID,0,VALID,94.293,VALID,0,VALID,25.006,VALID,349,VALID,0.524219,
2011-12-01, 00:04:04,VALID,1001.09,VALID,0,VALID,94.2777,VALID,0.0815089,VALID,25.006,VALID,349,VALID,0.523438,
2011-12-01, 00:05:04,VALID,1001.09,VALID,0,VALID,94.354,VALID,0.0815089,VALID,25.0255,VALID,349,VALID,0.505859,
2011-12-01, 00:06:04,VALID,1001.12,VALID,0,VALID,94.354,VALID,0.0815089,VALID,25.006,VALID,6,VALID,0.727734,
2011-12-01, 00:07:04,VALID,1001.1,VALID,0,VALID,94.3769,VALID,0.0815089,VALID,25.006,VALID,10,VALID,0.442969,
2011-12-01, 00:08:04,VALID,1001.12,VALID,0,VALID,94.4074,VALID,0.0815089,VALID,25.006,VALID,10,VALID,0.499609,
2011-12-01, 00:09:04,VALID,1001.11,VALID,0,VALID,94.4989,VALID,0,VALID,25.0255,VALID,15,VALID,0.796484,
2011-12-01, 00:10:04,VALID,1001.1,VALID,0,VALID,94.5523,VALID,0,VALID,25.006,VALID,16,VALID,0.142578,
2011-12-01, 00:11:04,VALID,1001.07,VALID,0,VALID,94.5752,VALID,0.0815089,VALID,25.0236,VALID,16,VALID,0.250391,
2011-12-01, 00:12:04,VALID,1001.07,VALID,0,VALID,94.5295,VALID,0.0815089,VALID,25.0255,VALID,16,VALID,0.342578,
2011-12-01, 00:13:04,VALID,1001.04,VALID,0,VALID,94.5371,VALID,0.0815089,VALID,25.0255,VALID,16,VALID,0.491797,
2011-12-01, 00:14:04,VALID,1001.02,VALID,0,VALID,94.6363,VALID,0.0815089,VALID,25.045,VALID,11,VALID,0.443359,
2011-12-01, 00:15:04,VALID,1000.99,VALID,0,VALID,94.5066,VALID,0.0815089,VALID,25.0236,VALID,11,VALID,0.391797,
2011-12-01, 00:16:04,VALID,1000.98,VALID,0,VALID,94.4455,VALID,0.0815089,VALID,25.006,VALID,11,VALID,0.0816406,
2011-12-01, 00:17:04,VALID,1000.98,VALID,0,VALID,94.3998,VALID,0.0815089,VALID,24.9652,VALID,11,VALID,0.0378906,
2011-12-01, 00:18:04,VALID,1000.97,VALID,0,VALID,94.4074,VALID,0.0815089,VALID,24.9457,VALID,62,VALID,0.142969,
2011-12-01, 00:19:04,VALID,1000.94,VALID,0,VALID,94.4455,VALID,0,VALID,24.9476,VALID,62,VALID,0.111328,
2011-12-01, 00:20:04,VALID,1000.94,VALID,0,VALID,94.4303,VALID,0,VALID,24.9495,VALID,62,VALID,0.449219,
2011-12-01, 00:21:04,VALID,1000.95,VALID,0,VALID,94.415,VALID,0,VALID,24.9282,VALID,62,VALID,0.48125,
2011-12-01, 00:22:04,VALID,1000.88,VALID,0,VALID,94.8956,VALID,0.0815089,VALID,25.006,VALID,349,VALID,0.783984,
2011-12-01, 00:23:04,VALID,1000.91,VALID,0,VALID,94.766,VALID,0,VALID,25.0255,VALID,350,VALID,0.191797,
2011-12-01, 00:24:04,VALID,1000.88,VALID,0,VALID,94.682,VALID,0.0815089,VALID,25.0255,VALID,350,VALID,0.296484,
2011-12-01, 00:25:04,VALID,1000.86,VALID,0,VALID,94.7965,VALID,0,VALID,25.045,VALID,350,VALID,0.3,
2011-12-01, 00:26:04,VALID,1000.87,VALID,0,VALID,94.7125,VALID,0,VALID,25.0625,VALID,350,VALID,0,
2011-12-01, 00:27:04,VALID,1000.89,VALID,0,VALID,94.6363,VALID,0,VALID,25.0839,VALID,350,VALID,0.324219,
2011-12-01, 00:28:04,VALID,1000.88,VALID,0,VALID,94.7125,VALID,0.0815089,VALID,25.0625,VALID,350,VALID,0.0753906,
2011-12-01, 00:29:04,VALID,1000.89,VALID,0,VALID,94.682,VALID,0,VALID,25.1229,VALID,355,VALID,0.124219,
2011-12-01, 00:30:04,VALID,1000.87,VALID,0,VALID,94.7431,VALID,0.0815089,VALID,25.1423,VALID,355,VALID,0.0589844,
2011-12-01, 00:31:04,VALID,1000.86,VALID,0,VALID,95.0024,VALID,0,VALID,25.2202,VALID,357,VALID,0.506641,
2011-12-01, 00:32:04,VALID,1000.84,VALID,0,VALID,94.9719,VALID,0.0815089,VALID,25.3176,VALID,346,VALID,0.323047,
2011-12-01, 00:33:04,VALID,1000.82,VALID,0,VALID,94.682,VALID,0.0815089,VALID,25.2572,VALID,3,VALID,0.626562,
2011-12-01, 00:34:04,VALID,1000.82,VALID,0,VALID,94.7431,VALID,0,VALID,25.376,VALID,2,VALID,0.425781,
2011-12-01, 00:35:04,VALID,1000.84,VALID,0,VALID,94.5905,VALID,0.0815089,VALID,25.4149,VALID,337,VALID,0.578906,
2011-12-01, 00:36:04,VALID,1000.81,VALID,0,VALID,94.3769,VALID,0.0815089,VALID,25.4149,VALID,351,VALID,0.383984,
2011-12-01, 00:37:04,VALID,1000.78,VALID,0,VALID,94.2624,VALID,0,VALID,25.4344,VALID,351,VALID,0.263672,
2011-12-01, 00:38:04,VALID,1000.79,VALID,0,VALID,94.0717,VALID,0.0815089,VALID,25.3935,VALID,351,VALID,0.103906,
2011-12-01, 00:39:04,VALID,1000.79,VALID,0,VALID,94.0107,VALID,0.0815089,VALID,25.3741,VALID,351,VALID,0,
2011-12-01, 00:40:04,VALID,1000.79,VALID,0,VALID,93.9802,VALID,0,VALID,25.376,VALID,351,VALID,0.00546875,
2011-12-01, 00:41:04,VALID,1000.79,VALID,0,VALID,93.8276,VALID,0.0815089,VALID,25.3351,VALID,351,VALID,0.414844,
2011-12-01, 00:42:04,VALID,1000.76,VALID,0,VALID,93.7055,VALID,0.0815089,VALID,25.2572,VALID,351,VALID,0.053125,
2011-12-01, 00:43:04,VALID,1000.76,VALID,0,VALID,93.7208,VALID,0.0815089,VALID,25.2592,VALID,351,VALID,0,
2011-12-01, 00:44:04,VALID,1000.72,VALID,0,VALID,93.6903,VALID,0.0815089,VALID,25.2416,VALID,351,VALID,0.133203,
2011-12-01, 00:45:04,VALID,1000.69,VALID,0,VALID,93.7208,VALID,0.0815089,VALID,25.2007,VALID,351,VALID,0.186328,
2011-12-01, 00:46:04,VALID,1000.65,VALID,0,VALID,93.8352,VALID,0,VALID,25.1618,VALID,351,VALID,0.10625,
2011-12-01, 00:47:04,VALID,1000.62,VALID,0,VALID,93.9649,VALID,0,VALID,25.1832,VALID,351,VALID,0.015625,
2011-12-01, 00:48:04,VALID,1000.63,VALID,0,VALID,93.9802,VALID,0,VALID,25.1618,VALID,351,VALID,0,
2011-12-01, 00:49:04,VALID,1000.65,VALID,0,VALID,94.0107,VALID,0,VALID,25.1618,VALID,351,VALID,0,
2011-12-01, 00:50:04,VALID,1000.62,VALID,0,VALID,94.0412,VALID,0,VALID,25.1618,VALID,351,VALID,0,
2011-12-01, 00:51:04,VALID,1000.62,VALID,0,VALID,94.148,VALID,0,VALID,25.1618,VALID,351,VALID,0,
2011-12-01, 00:52:04,VALID,1000.62,VALID,0,VALID,94.1251,VALID,0,VALID,25.1832,VALID,351,VALID,0,
2011-12-01, 00:53:04,VALID,1000.59,VALID,0,VALID,94.2167,VALID,0,VALID,25.1618,VALID,351,VALID,0.415234,
2011-12-01, 00:54:04,VALID,1000.56,VALID,0,VALID,94.2396,VALID,0,VALID,25.1618,VALID,351,VALID,0,
2011-12-01, 00:55:04,VALID,1000.55,VALID,0,VALID,94.2548,VALID,0,VALID,25.1813,VALID,351,VALID,0.347266,
2011-12-01, 00:56:04,VALID,1000.56,VALID,0,VALID,94.354,VALID,0,VALID,25.2007,VALID,7,VALID,0.317578,
2011-12-01, 00:57:04,VALID,1000.53,VALID,0,VALID,94.3692,VALID,0,VALID,25.2007,VALID,7,VALID,0,
2011-12-01, 00:58:04,VALID,1000.53,VALID,0,VALID,94.4074,VALID,0,VALID,25.2416,VALID,7,VALID,0.329297,
2011-12-01, 00:59:04,VALID,1000.5,VALID,0,VALID,94.4227,VALID,0,VALID,25.1988,VALID,7,VALID,0,
2011-12-01, 01:00:04,VALID,1000.53,VALID,0,VALID,94.415,VALID,0,VALID,25.2202,VALID,7,VALID,0.0839844,
2011-12-01, 01:01:04,VALID,1000.52,VALID,0,VALID,94.3464,VALID,0.0815089,VALID,25.2202,VALID,7,VALID,0.04375,
2011-12-01, 01:02:04,VALID,1000.51,VALID,0,VALID,94.3311,VALID,0,VALID,25.2007,VALID,7,VALID,0,
2011-12-01, 01:03:04,VALID,1000.51,VALID,0,VALID,94.2624,VALID,0,VALID,25.1813,VALID,7,VALID,0,
2011-12-01, 01:04:04,VALID,1000.5,VALID,0,VALID,94.2167,VALID,0,VALID,25.1423,VALID,7,VALID,0,
2011-12-01, 01:05:04,VALID,1000.5,VALID,0,VALID,94.1785,VALID,0,VALID,25.1015,VALID,7,VALID,0,
2011-12-01, 01:06:04,VALID,1000.47,VALID,0,VALID,94.1633,VALID,0,VALID,25.082,VALID,7,VALID,0,
2011-12-01, 01:07:04,VALID,1000.45,VALID,0,VALID,94.2014,VALID,0.0815089,VALID,25.0644,VALID,7,VALID,0,
2011-12-01, 01:08:04,VALID,1000.49,VALID,0,VALID,94.1862,VALID,0,VALID,25.0236,VALID,7,VALID,0,
2011-12-01, 01:09:04,VALID,1000.51,VALID,0,VALID,94.1862,VALID,0,VALID,25.0255,VALID,7,VALID,0,
2011-12-01, 01:10:04,VALID,1000.48,VALID,0,VALID,94.2472,VALID,0,VALID,25.0255,VALID,7,VALID,0,
2011-12-01, 01:11:04,VALID,1000.5,VALID,0,VALID,94.293,VALID,0,VALID,24.9866,VALID,7,VALID,0,
2011-12-01, 01:12:04,VALID,1000.49,VALID,0,VALID,94.2853,VALID,0.0815089,VALID,24.9866,VALID,7,VALID,0,
2011-12-01, 01:13:04,VALID,1000.46,VALID,0,VALID,94.3311,VALID,0,VALID,24.9671,VALID,7,VALID,0,
2011-12-01, 01:14:04,VALID,1000.44,VALID,0,VALID,94.3616,VALID,0,VALID,24.9671,VALID,7,VALID,0.00351562,
2011-12-01, 01:15:04,VALID,1000.42,VALID,0,VALID,94.4837,VALID,0,VALID,24.9671,VALID,7,VALID,0.255078,
2011-12-01, 01:16:04,VALID,1000.43,VALID,0,VALID,94.5752,VALID,0,VALID,24.9847,VALID,7,VALID,0,
2011-12-01, 01:17:04,VALID,1000.4,VALID,0,VALID,94.4989,VALID,0,VALID,24.9866,VALID,7,VALID,0,
2011-12-01, 01:18:04,VALID,1000.41,VALID,0,VALID,94.56,VALID,0,VALID,25.0079,VALID,7,VALID,0.148438,
2011-12-01, 01:19:04,VALID,1000.41,VALID,0,VALID,94.4532,VALID,0,VALID,24.9866,VALID,7,VALID,0.490234,
2011-12-01, 01:20:04,VALID,1000.39,VALID,0,VALID,94.354,VALID,0,VALID,24.9476,VALID,7,VALID,0.274219,
2011-12-01, 01:21:04,VALID,1000.36,VALID,0,VALID,94.354,VALID,0,VALID,24.9282,VALID,7,VALID,0.459766,
2011-12-01, 01:22:04,VALID,1000.36,VALID,0,VALID,94.3464,VALID,0,VALID,24.9087,VALID,7,VALID,0.225781,
2011-12-01, 01:23:04,VALID,1000.37,VALID,0,VALID,94.4455,VALID,0,VALID,24.8892,VALID,7,VALID,0.150391,
2011-12-01, 01:24:04,VALID,1000.32,VALID,0,VALID,94.4532,VALID,0,VALID,24.8697,VALID,7,VALID,0,
2011-12-01, 01:25:04,VALID,1000.35,VALID,0,VALID,94.4455,VALID,0,VALID,24.8697,VALID,7,VALID,0,
2011-12-01, 01:26:04,VALID,1000.32,VALID,0,VALID,94.4989,VALID,0,VALID,24.8503,VALID,7,VALID,0,
2011-12-01, 01:27:04,VALID,1000.26,VALID,0,VALID,94.4684,VALID,0,VALID,24.8308,VALID,7,VALID,0.194922,
2011-12-01, 01:28:04,VALID,1000.25,VALID,0,VALID,94.4379,VALID,0,VALID,24.8113,VALID,7,VALID,0.340625,
2011-12-01, 01:29:04,VALID,1000.24,VALID,0,VALID,94.4532,VALID,0,VALID,24.7919,VALID,7,VALID,0.164453,
2011-12-01, 01:30:04,VALID,1000.23,VALID,0,VALID,94.6057,VALID,0,VALID,24.8132,VALID,7,VALID,0.416016,
2011-12-01, 01:31:04,VALID,1000.26,VALID,0,VALID,94.6515,VALID,0,VALID,24.7919,VALID,7,VALID,0.309375,
2011-12-01, 01:32:04,VALID,1000.23,VALID,0,VALID,94.7202,VALID,0,VALID,24.8113,VALID,7,VALID,0.395312,
2011-12-01, 01:33:04,VALID,1000.24,VALID,0,VALID,94.7202,VALID,0,VALID,24.8113,VALID,7,VALID,0.336719,
2011-12-01, 01:34:04,VALID,1000.23,VALID,0,VALID,94.766,VALID,0.0815089,VALID,24.8113,VALID,7,VALID,0.35625,
2011-12-01, 01:35:04,VALID,1000.18,VALID,0,VALID,94.6897,VALID,0,VALID,24.7919,VALID,7,VALID,0.616016,
2011-12-01, 01:36:04,VALID,1000.18,VALID,0,VALID,94.6515,VALID,0,VALID,24.7724,VALID,8,VALID,0.412109,
2011-12-01, 01:37:04,VALID,1000.15,VALID,0,VALID,94.6515,VALID,0,VALID,24.7724,VALID,8,VALID,0.491406,
2011-12-01, 01:38:04,VALID,1000.13,VALID,0,VALID,94.6744,VALID,0,VALID,24.7121,VALID,8,VALID,0.642578,
2011-12-01, 01:39:04,VALID,1000.12,VALID,0,VALID,94.7354,VALID,0,VALID,24.7529,VALID,8,VALID,0.525391,
2011-12-01, 01:40:04,VALID,1000.08,VALID,0,VALID,94.8651,VALID,0,VALID,24.7529,VALID,8,VALID,0.297656,
2011-12-01, 01:41:04,VALID,1000.03,VALID,0,VALID,94.8651,VALID,0,VALID,24.7724,VALID,8,VALID,0.328125,
2011-12-01, 01:42:04,VALID,1000.03,VALID,0,VALID,94.8117,VALID,0,VALID,24.7316,VALID,8,VALID,0.200781,
2011-12-01, 01:43:04,VALID,1000.05,VALID,0,VALID,94.8575,VALID,0,VALID,24.7724,VALID,8,VALID,0.258594,
2011-12-01, 01:44:04,VALID,1000.01,VALID,0,VALID,94.9109,VALID,0.0815089,VALID,24.7919,VALID,8,VALID,0.219141,
2011-12-01, 01:45:04,VALID,999.978,VALID,0,VALID,94.8346,VALID,0,VALID,24.7316,VALID,8,VALID,0.296094,
2011-12-01, 01:46:04,VALID,999.955,VALID,0,VALID,94.9109,VALID,0,VALID,24.7724,VALID,3,VALID,0.344141,
2011-12-01, 01:47:04,VALID,999.983,VALID,0,VALID,94.888,VALID,0,VALID,24.7937,VALID,3,VALID,0.199219,
2011-12-01, 01:48:04,VALID,999.969,VALID,0,VALID,94.8575,VALID,0,VALID,24.7937,VALID,3,VALID,0.269141,
2011-12-01, 01:49:04,VALID,999.977,VALID,0,VALID,94.8728,VALID,0,VALID,24.7743,VALID,3,VALID,0.277734,
2011-12-01, 01:50:04,VALID,999.937,VALID,0,VALID,94.9948,VALID,0,VALID,24.7919,VALID,3,VALID,0.439063,
2011-12-01, 01:51:04,VALID,999.905,VALID,0,VALID,95.0253,VALID,0,VALID,24.8113,VALID,3,VALID,0.323047,
2011-12-01, 01:52:04,VALID,999.901,VALID,0,VALID,94.9948,VALID,0.0815089,VALID,24.8308,VALID,2,VALID,0.175781,
2011-12-01, 01:53:04,VALID,999.859,VALID,0,VALID,94.9948,VALID,0,VALID,24.8095,VALID,2,VALID,0.101172,
2011-12-01, 01:54:04,VALID,999.865,VALID,0,VALID,94.9643,VALID,0,VALID,24.8522,VALID,2,VALID,0.265234,
2011-12-01, 01:55:04,VALID,999.876,VALID,0,VALID,94.949,VALID,0,VALID,24.8113,VALID,2,VALID,0.253516,
2011-12-01, 01:56:04,VALID,999.836,VALID,0,VALID,94.9033,VALID,0,VALID,24.8308,VALID,2,VALID,0.320703,
2011-12-01, 01:57:04,VALID,999.822,VALID,0,VALID,94.9109,VALID,0,VALID,24.7919,VALID,2,VALID,0.394922,
2011-12-01, 01:58:04,VALID,999.794,VALID,0,VALID,94.9262,VALID,0,VALID,24.8113,VALID,2,VALID,0.215234,
2011-12-01, 01:59:04,VALID,999.78,VALID,0,VALID,94.9643,VALID,0,VALID,24.8113,VALID,2,VALID,0.250391,
2011-12-01, 02:00:04,VALID,999.769,VALID,0,VALID,94.9948,VALID,0,VALID,24.8113,VALID,2,VALID,0.157422,
2011-12-01, 02:01:04,VALID,999.751,VALID,0,VALID,94.9643,VALID,0,VALID,24.8113,VALID,2,VALID,0.119922,
2011-12-01, 02:02:04,VALID,999.714,VALID,0,VALID,94.9567,VALID,0,VALID,24.8113,VALID,2,VALID,0,
2011-12-01, 02:03:04,VALID,999.718,VALID,0,VALID,95.0024,VALID,0,VALID,24.8522,VALID,2,VALID,0.28125,
2011-12-01, 02:04:04,VALID,999.7,VALID,0,VALID,95.0482,VALID,0,VALID,24.8503,VALID,2,VALID,0.304688,
2011-12-01, 02:05:04,VALID,999.663,VALID,0,VALID,95.0635,VALID,0.0815089,VALID,24.8503,VALID,2,VALID,0.0328125,
2011-12-01, 02:06:04,VALID,999.67,VALID,0,VALID,95.0787,VALID,0,VALID,24.8697,VALID,2,VALID,0,
2011-12-01, 02:07:04,VALID,999.673,VALID,0,VALID,95.0787,VALID,0,VALID,24.8697,VALID,2,VALID,0,
2011-12-01, 02:08:04,VALID,999.685,VALID,0,VALID,95.0558,VALID,0,VALID,24.8911,VALID,2,VALID,0.163281,
2011-12-01, 02:09:04,VALID,999.742,VALID,0,VALID,95.0635,VALID,0,VALID,24.8697,VALID,2,VALID,0.105469,
2011-12-01, 02:10:04,VALID,999.742,VALID,0,VALID,95.0177,VALID,0,VALID,24.8697,VALID,2,VALID,0.0609375,
2011-12-01, 02:11:04,VALID,999.734,VALID,0,VALID,95.0482,VALID,0,VALID,24.8697,VALID,2,VALID,0,
2011-12-01, 02:12:04,VALID,999.761,VALID,0,VALID,94.9796,VALID,0,VALID,24.8308,VALID,2,VALID,0,
2011-12-01, 02:13:04,VALID,999.751,VALID,0,VALID,94.9262,VALID,0,VALID,24.8308,VALID,2,VALID,0,
2011-12-01, 02:14:04,VALID,999.742,VALID,0,VALID,94.888,VALID,0,VALID,24.7919,VALID,2,VALID,0,
2011-12-01, 02:15:04,VALID,999.771,VALID,0,VALID,94.9567,VALID,0,VALID,24.7919,VALID,2,VALID,0.0316406,
2011-12-01, 02:16:04,VALID,999.779,VALID,0,VALID,94.9719,VALID,0,VALID,24.7724,VALID,2,VALID,0,
2011-12-01, 02:17:04,VALID,999.761,VALID,0,VALID,94.949,VALID,0,VALID,24.7724,VALID,2,VALID,0,
2011-12-01, 02:18:04,VALID,999.772,VALID,0,VALID,94.9872,VALID,0,VALID,24.7724,VALID,2,VALID,0,
2011-12-01, 02:19:04,VALID,999.763,VALID,0,VALID,95.0101,VALID,0,VALID,24.7529,VALID,2,VALID,0,
2011-12-01, 02:20:04,VALID,999.764,VALID,0,VALID,95.033,VALID,0,VALID,24.7724,VALID,2,VALID,0,
2011-12-01, 02:21:04,VALID,999.753,VALID,0,VALID,95.0177,VALID,0,VALID,24.7529,VALID,2,VALID,0,
2011-12-01, 02:22:04,VALID,999.73,VALID,0,VALID,94.9872,VALID,0,VALID,24.7548,VALID,2,VALID,0,
2011-12-01, 02:23:04,VALID,999.73,VALID,0,VALID,94.9872,VALID,0,VALID,24.7335,VALID,2,VALID,0,
2011-12-01, 02:24:04,VALID,999.695,VALID,0,VALID,94.9948,VALID,0,VALID,24.714,VALID,2,VALID,0,
2011-12-01, 02:25:04,VALID,999.649,VALID,0,VALID,95.0177,VALID,0,VALID,24.714,VALID,2,VALID,0,
2011-12-01, 02:26:04,VALID,999.626,VALID,0,VALID,95.0635,VALID,0,VALID,24.7335,VALID,2,VALID,0.0285156,
2011-12-01, 02:27:04,VALID,999.573,VALID,0,VALID,95.0101,VALID,0,VALID,24.7353,VALID,2,VALID,0.342578,
2011-12-01, 02:28:04,VALID,999.548,VALID,0,VALID,95.0024,VALID,0,VALID,24.6964,VALID,2,VALID,0.361719,
2011-12-01, 02:29:04,VALID,999.493,VALID,0,VALID,94.9643,VALID,0,VALID,24.675,VALID,2,VALID,0.424219,
2011-12-01, 02:30:04,VALID,999.494,VALID,0,VALID,94.9643,VALID,0,VALID,24.6148,VALID,2,VALID,0.538281,
2011-12-01, 02:31:04,VALID,999.46,VALID,0,VALID,94.9948,VALID,0,VALID,24.6361,VALID,2,VALID,0.519531,
2011-12-01, 02:32:04,VALID,999.448,VALID,0,VALID,95.0406,VALID,0,VALID,24.6556,VALID,2,VALID,0.385156,
2011-12-01, 02:33:04,VALID,999.461,VALID,0,VALID,95.0406,VALID,0,VALID,24.638,VALID,2,VALID,0.346484,
2011-12-01, 02:34:04,VALID,999.435,VALID,0,VALID,95.1627,VALID,0,VALID,24.6361,VALID,2,VALID,0.374219,
2011-12-01, 02:35:04,VALID,999.442,VALID,0,VALID,95.1779,VALID,0,VALID,24.675,VALID,2,VALID,0.0488281,
2011-12-01, 02:36:04,VALID,999.451,VALID,0,VALID,95.2008,VALID,0,VALID,24.6556,VALID,2,VALID,0,
2011-12-01, 02:37:04,VALID,999.422,VALID,0,VALID,95.2237,VALID,0,VALID,24.675,VALID,2,VALID,0,
2011-12-01, 02:38:04,VALID,999.469,VALID,0,VALID,95.2084,VALID,0,VALID,24.6945,VALID,2,VALID,0,
2011-12-01, 02:39:04,VALID,999.472,VALID,0,VALID,95.2008,VALID,0,VALID,24.6945,VALID,2,VALID,0,
2011-12-01, 02:40:04,VALID,999.505,VALID,0,VALID,95.2389,VALID,0,VALID,24.714,VALID,2,VALID,0,
2011-12-01, 02:41:04,VALID,999.539,VALID,0,VALID,95.2389,VALID,0,VALID,24.7335,VALID,2,VALID,0,
2011-12-01, 02:42:04,VALID,999.562,VALID,0,VALID,95.2237,VALID,0,VALID,24.7335,VALID,2,VALID,0,
2011-12-01, 02:43:04,VALID,999.613,VALID,0,VALID,95.1703,VALID,0,VALID,24.714,VALID,2,VALID,0.255859,
2011-12-01, 02:44:04,VALID,999.67,VALID,0,VALID,95.1703,VALID,0,VALID,24.6945,VALID,2,VALID,0.221875,
2011-12-01, 02:45:04,VALID,999.722,VALID,0,VALID,95.1321,VALID,0,VALID,24.6945,VALID,2,VALID,0.157031,
2011-12-01, 02:46:04,VALID,999.742,VALID,0,VALID,95.1474,VALID,0,VALID,24.675,VALID,2,VALID,0,
2011-12-01, 02:47:04,VALID,999.754,VALID,0,VALID,95.1703,VALID,0,VALID,24.6964,VALID,2,VALID,0.00976563,
2011-12-01, 02:48:04,VALID,999.761,VALID,0,VALID,95.2313,VALID,0,VALID,24.714,VALID,2,VALID,0.255469,
2011-12-01, 02:49:04,VALID,999.794,VALID,0,VALID,95.2695,VALID,0,VALID,24.714,VALID,2,VALID,0.309766,
2011-12-01, 02:50:04,VALID,999.803,VALID,0,VALID,95.2161,VALID,0,VALID,24.6732,VALID,1,VALID,0.431641,
2011-12-01, 02:51:04,VALID,999.838,VALID,0,VALID,95.3,VALID,0,VALID,24.714,VALID,1,VALID,0.028125,
2011-12-01, 02:52:04,VALID,999.814,VALID,0,VALID,95.3534,VALID,0,VALID,24.7529,VALID,1,VALID,0.0210938,
2011-12-01, 02:53:04,VALID,999.815,VALID,0,VALID,95.3305,VALID,0,VALID,24.7724,VALID,1,VALID,0.358594,
2011-12-01, 02:54:04,VALID,999.837,VALID,0,VALID,95.1932,VALID,0,VALID,24.7335,VALID,1,VALID,0.614453,
2011-12-01, 02:55:04,VALID,999.865,VALID,0,VALID,95.0482,VALID,0,VALID,24.675,VALID,1,VALID,0.559766,
2011-12-01, 02:56:04,VALID,999.887,VALID,0,VALID,94.9414,VALID,0,VALID,24.6166,VALID,1,VALID,0.442969,
2011-12-01, 02:57:04,VALID,999.876,VALID,0,VALID,94.9033,VALID,0,VALID,24.5582,VALID,1,VALID,0.369531,
2011-12-01, 02:58:04,VALID,999.876,VALID,0,VALID,94.9262,VALID,0,VALID,24.5193,VALID,1,VALID,0.191406,
2011-12-01, 02:59:04,VALID,999.884,VALID,0,VALID,94.9796,VALID,0,VALID,24.4804,VALID,1,VALID,0.00195313,
2011-12-01, 03:00:04,VALID,999.858,VALID,0,VALID,95.0177,VALID,0,VALID,24.4822,VALID,1,VALID,0,
2011-12-01, 03:01:04,VALID,999.925,VALID,0,VALID,95.0635,VALID,0,VALID,24.4609,VALID,1,VALID,0,
2011-12-01, 03:02:04,VALID,999.916,VALID,0,VALID,95.0864,VALID,0,VALID,24.4414,VALID,1,VALID,0.0652344,
2011-12-01, 03:03:04,VALID,999.944,VALID,0,VALID,95.1245,VALID,0,VALID,24.4414,VALID,1,VALID,0.193359,
2011-12-01, 03:04:04,VALID,999.964,VALID,0,VALID,95.2084,VALID,0,VALID,24.4609,VALID,1,VALID,0.00351562,
2011-12-01, 03:05:04,VALID,999.968,VALID,0,VALID,95.1932,VALID,0,VALID,24.4414,VALID,1,VALID,0,
2011-12-01, 03:06:04,VALID,1000.01,VALID,0,VALID,95.1779,VALID,0,VALID,24.4414,VALID,1,VALID,0,
2011-12-01, 03:07:04,VALID,1000.01,VALID,0,VALID,95.1855,VALID,0,VALID,24.4414,VALID,1,VALID,0,
2011-12-01, 03:08:04,VALID,1000.03,VALID,0,VALID,95.3839,VALID,0,VALID,24.4998,VALID,1,VALID,0,
2011-12-01, 03:09:04,VALID,1000.04,VALID,0,VALID,95.5136,VALID,0,VALID,24.5582,VALID,1,VALID,0,
2011-12-01, 03:10:04,VALID,1000.02,VALID,0,VALID,95.4907,VALID,0,VALID,24.6166,VALID,1,VALID,0.348437,
2011-12-01, 03:11:04,VALID,1000,VALID,0,VALID,95.4678,VALID,0,VALID,24.6574,VALID,1,VALID,0.441797,
2011-12-01, 03:12:04,VALID,1000.03,VALID,0,VALID,95.361,VALID,0,VALID,24.6556,VALID,1,VALID,0.323828,
2011-12-01, 03:13:04,VALID,1000.03,VALID,0,VALID,95.2008,VALID,0,VALID,24.599,VALID,1,VALID,0.597266,
2011-12-01, 03:14:04,VALID,1000.03,VALID,0,VALID,95.1093,VALID,0,VALID,24.5406,VALID,1,VALID,0.725781,
2011-12-01, 03:15:04,VALID,1000.01,VALID,0,VALID,95.1398,VALID,0,VALID,24.5193,VALID,1,VALID,0.628906,
2011-12-01, 03:16:04,VALID,1000.02,VALID,0,VALID,95.2466,VALID,0,VALID,24.5193,VALID,1,VALID,0.524219,
2011-12-01, 03:17:04,VALID,999.968,VALID,0,VALID,95.2237,VALID,0,VALID,24.4998,VALID,1,VALID,0.473828,
2011-12-01, 03:18:04,VALID,999.958,VALID,0,VALID,95.1932,VALID,0,VALID,24.459,VALID,1,VALID,0.549219,
2011-12-01, 03:19:04,VALID,999.93,VALID,0,VALID,95.2313,VALID,0,VALID,24.4804,VALID,1,VALID,0.540234,
2011-12-01, 03:20:04,VALID,999.897,VALID,0,VALID,95.3076,VALID,0,VALID,24.4785,VALID,1,VALID,0.754297,
2011-12-01, 03:21:04,VALID,999.859,VALID,0,VALID,95.4449,VALID,0,VALID,24.5388,VALID,1,VALID,0.773047,
2011-12-01, 03:22:04,VALID,999.859,VALID,0,VALID,95.5136,VALID,0,VALID,24.5972,VALID,1,VALID,0.738672,
2011-12-01, 03:23:04,VALID,999.846,VALID,0,VALID,95.5441,VALID,0,VALID,24.6556,VALID,360,VALID,0.807813,
2011-12-01, 03:24:04,VALID,999.86,VALID,0,VALID,95.4831,VALID,0,VALID,24.6556,VALID,360,VALID,0.496484,
2011-12-01, 03:25:04,VALID,999.824,VALID,0,VALID,95.5822,VALID,0,VALID,24.714,VALID,358,VALID,0.546094,
2011-12-01, 03:26:04,VALID,999.815,VALID,0,VALID,95.567,VALID,0,VALID,24.7529,VALID,358,VALID,0.4125,
2011-12-01, 03:27:04,VALID,999.816,VALID,0,VALID,95.5288,VALID,0,VALID,24.7316,VALID,358,VALID,0.122656,
2011-12-01, 03:28:04,VALID,999.794,VALID,0,VALID,95.4907,VALID,0,VALID,24.7724,VALID,358,VALID,0.446875,
2011-12-01, 03:29:04,VALID,999.783,VALID,0,VALID,95.4373,VALID,0,VALID,24.7724,VALID,358,VALID,0.458594,
2011-12-01, 03:30:04,VALID,999.771,VALID,0,VALID,95.4144,VALID,0.0815089,VALID,24.7529,VALID,358,VALID,0.53125,
2011-12-01, 03:31:04,VALID,999.711,VALID,0,VALID,95.3457,VALID,0.0815089,VALID,24.7335,VALID,358,VALID,0.548047,
2011-12-01, 03:32:04,VALID,999.669,VALID,0,VALID,95.3534,VALID,0,VALID,24.7316,VALID,358,VALID,0.337891,
2011-12-01, 03:33:04,VALID,999.603,VALID,0,VALID,95.2695,VALID,0.0815089,VALID,24.7159,VALID,358,VALID,0.373828,
2011-12-01, 03:34:04,VALID,999.607,VALID,0,VALID,95.2237,VALID,0.0815089,VALID,24.6556,VALID,358,VALID,0.142188,
2011-12-01, 03:35:04,VALID,999.594,VALID,0,VALID,95.1932,VALID,0.0815089,VALID,24.6574,VALID,358,VALID,0.285547,
2011-12-01, 03:36:04,VALID,999.575,VALID,0,VALID,95.1398,VALID,0,VALID,24.5777,VALID,358,VALID,0.337891,
2011-12-01, 03:37:04,VALID,999.614,VALID,0,VALID,95.1855,VALID,0,VALID,24.5777,VALID,358,VALID,0.228906,
2011-12-01, 03:38:04,VALID,999.612,VALID,0,VALID,95.2618,VALID,0,VALID,24.5777,VALID,358,VALID,0.247266,
2011-12-01, 03:39:04,VALID,999.625,VALID,0,VALID,95.3,VALID,0,VALID,24.5777,VALID,358,VALID,0.189063,
2011-12-01, 03:40:04,VALID,999.638,VALID,0,VALID,95.2847,VALID,0.0815089,VALID,24.5582,VALID,358,VALID,0,
2011-12-01, 03:41:04,VALID,999.667,VALID,0,VALID,95.4068,VALID,0.0815089,VALID,24.5758,VALID,312,VALID,0.546875,
2011-12-01, 03:42:04,VALID,999.703,VALID,0,VALID,95.4297,VALID,0.0815089,VALID,24.6148,VALID,310,VALID,0.00546875,
2011-12-01, 03:43:04,VALID,999.721,VALID,0,VALID,95.4373,VALID,0.0815089,VALID,24.6361,VALID,310,VALID,0.00429688,
2011-12-01, 03:44:04,VALID,999.74,VALID,0,VALID,95.4983,VALID,0,VALID,24.6945,VALID,310,VALID,0,
2011-12-01, 03:45:04,VALID,999.815,VALID,0,VALID,95.5517,VALID,0,VALID,24.7724,VALID,310,VALID,0.0292969,
2011-12-01, 03:46:04,VALID,999.837,VALID,0,VALID,95.5517,VALID,0,VALID,24.8113,VALID,310,VALID,0.110937,
2011-12-01, 03:47:04,VALID,999.898,VALID,0,VALID,95.4831,VALID,0,VALID,24.7724,VALID,310,VALID,0.414844,